start;end;baseprice;unit
01.04.2019 00:00:00;01.04.2019 01:00:00;3.11;Cent/kWh
01.04.2019 01:00:00;01.04.2019 02:00:00;3.00;Cent/kWh
01.04.2019 02:00:00;01.04.2019 03:00:00;3.11;Cent/kWh
01.04.2019 03:00:00;01.04.2019 04:00:00;3.11;Cent/kWh
01.04.2019 04:00:00;01.04.2019 05:00:00;3.11;Cent/kWh
01.04.2019 05:00:00;01.04.2019 06:00:00;3.72;Cent/kWh
01.04.2019 06:00:00;01.04.2019 07:00:00;4.71;Cent/kWh
01.04.2019 07:00:00;01.04.2019 08:00:00;5.70;Cent/kWh
01.04.2019 08:00:00;01.04.2019 09:00:00;5.36;Cent/kWh
01.04.2019 09:00:00;01.04.2019 10:00:00;4.60;Cent/kWh
01.04.2019 10:00:00;01.04.2019 11:00:00;4.22;Cent/kWh
01.04.2019 11:00:00;01.04.2019 12:00:00;3.91;Cent/kWh
01.04.2019 12:00:00;01.04.2019 13:00:00;3.43;Cent/kWh
01.04.2019 13:00:00;01.04.2019 14:00:00;3.23;Cent/kWh
01.04.2019 14:00:00;01.04.2019 15:00:00;3.11;Cent/kWh
01.04.2019 15:00:00;01.04.2019 16:00:00;3.16;Cent/kWh
01.04.2019 16:00:00;01.04.2019 17:00:00;3.18;Cent/kWh
01.04.2019 17:00:00;01.04.2019 18:00:00;3.57;Cent/kWh
01.04.2019 18:00:00;01.04.2019 19:00:00;4.31;Cent/kWh
01.04.2019 19:00:00;01.04.2019 20:00:00;4.51;Cent/kWh
01.04.2019 20:00:00;01.04.2019 21:00:00;4.51;Cent/kWh
01.04.2019 21:00:00;01.04.2019 22:00:00;3.94;Cent/kWh
01.04.2019 22:00:00;01.04.2019 23:00:00;3.58;Cent/kWh
01.04.2019 23:00:00;02.04.2019 00:00:00;3.10;Cent/kWh
02.04.2019 00:00:00;02.04.2019 01:00:00;2.94;Cent/kWh
02.04.2019 01:00:00;02.04.2019 02:00:00;2.73;Cent/kWh
02.04.2019 02:00:00;02.04.2019 03:00:00;2.59;Cent/kWh
02.04.2019 03:00:00;02.04.2019 04:00:00;2.52;Cent/kWh
02.04.2019 04:00:00;02.04.2019 05:00:00;2.76;Cent/kWh
02.04.2019 05:00:00;02.04.2019 06:00:00;3.10;Cent/kWh
02.04.2019 06:00:00;02.04.2019 07:00:00;4.03;Cent/kWh
02.04.2019 07:00:00;02.04.2019 08:00:00;4.38;Cent/kWh
02.04.2019 08:00:00;02.04.2019 09:00:00;4.35;Cent/kWh
02.04.2019 09:00:00;02.04.2019 10:00:00;4.10;Cent/kWh
02.04.2019 10:00:00;02.04.2019 11:00:00;3.80;Cent/kWh
02.04.2019 11:00:00;02.04.2019 12:00:00;3.38;Cent/kWh
02.04.2019 12:00:00;02.04.2019 13:00:00;3.06;Cent/kWh
02.04.2019 13:00:00;02.04.2019 14:00:00;3.01;Cent/kWh
02.04.2019 14:00:00;02.04.2019 15:00:00;2.98;Cent/kWh
02.04.2019 15:00:00;02.04.2019 16:00:00;2.93;Cent/kWh
02.04.2019 16:00:00;02.04.2019 17:00:00;3.02;Cent/kWh
02.04.2019 17:00:00;02.04.2019 18:00:00;3.51;Cent/kWh
02.04.2019 18:00:00;02.04.2019 19:00:00;4.07;Cent/kWh
02.04.2019 19:00:00;02.04.2019 20:00:00;4.32;Cent/kWh
02.04.2019 20:00:00;02.04.2019 21:00:00;4.27;Cent/kWh
02.04.2019 21:00:00;02.04.2019 22:00:00;3.82;Cent/kWh
02.04.2019 22:00:00;02.04.2019 23:00:00;3.51;Cent/kWh
02.04.2019 23:00:00;03.04.2019 00:00:00;3.12;Cent/kWh
03.04.2019 00:00:00;03.04.2019 01:00:00;3.19;Cent/kWh
03.04.2019 01:00:00;03.04.2019 02:00:00;3.15;Cent/kWh
03.04.2019 02:00:00;03.04.2019 03:00:00;3.11;Cent/kWh
03.04.2019 03:00:00;03.04.2019 04:00:00;3.12;Cent/kWh
03.04.2019 04:00:00;03.04.2019 05:00:00;3.26;Cent/kWh
03.04.2019 05:00:00;03.04.2019 06:00:00;3.50;Cent/kWh
03.04.2019 06:00:00;03.04.2019 07:00:00;4.30;Cent/kWh
03.04.2019 07:00:00;03.04.2019 08:00:00;4.83;Cent/kWh
03.04.2019 08:00:00;03.04.2019 09:00:00;5.24;Cent/kWh
03.04.2019 09:00:00;03.04.2019 10:00:00;5.47;Cent/kWh
03.04.2019 10:00:00;03.04.2019 11:00:00;4.95;Cent/kWh
03.04.2019 11:00:00;03.04.2019 12:00:00;4.80;Cent/kWh
03.04.2019 12:00:00;03.04.2019 13:00:00;4.51;Cent/kWh
03.04.2019 13:00:00;03.04.2019 14:00:00;4.31;Cent/kWh
03.04.2019 14:00:00;03.04.2019 15:00:00;4.18;Cent/kWh
03.04.2019 15:00:00;03.04.2019 16:00:00;4.15;Cent/kWh
03.04.2019 16:00:00;03.04.2019 17:00:00;4.17;Cent/kWh
03.04.2019 17:00:00;03.04.2019 18:00:00;4.27;Cent/kWh
03.04.2019 18:00:00;03.04.2019 19:00:00;4.54;Cent/kWh
03.04.2019 19:00:00;03.04.2019 20:00:00;5.13;Cent/kWh
03.04.2019 20:00:00;03.04.2019 21:00:00;5.23;Cent/kWh
03.04.2019 21:00:00;03.04.2019 22:00:00;4.41;Cent/kWh
03.04.2019 22:00:00;03.04.2019 23:00:00;4.13;Cent/kWh
03.04.2019 23:00:00;04.04.2019 00:00:00;3.79;Cent/kWh
04.04.2019 00:00:00;04.04.2019 01:00:00;3.68;Cent/kWh
04.04.2019 01:00:00;04.04.2019 02:00:00;3.52;Cent/kWh
04.04.2019 02:00:00;04.04.2019 03:00:00;3.30;Cent/kWh
04.04.2019 03:00:00;04.04.2019 04:00:00;3.31;Cent/kWh
04.04.2019 04:00:00;04.04.2019 05:00:00;3.41;Cent/kWh
04.04.2019 05:00:00;04.04.2019 06:00:00;3.69;Cent/kWh
04.04.2019 06:00:00;04.04.2019 07:00:00;4.47;Cent/kWh
04.04.2019 07:00:00;04.04.2019 08:00:00;5.36;Cent/kWh
04.04.2019 08:00:00;04.04.2019 09:00:00;5.99;Cent/kWh
04.04.2019 09:00:00;04.04.2019 10:00:00;4.81;Cent/kWh
04.04.2019 10:00:00;04.04.2019 11:00:00;4.80;Cent/kWh
04.04.2019 11:00:00;04.04.2019 12:00:00;4.76;Cent/kWh
04.04.2019 12:00:00;04.04.2019 13:00:00;4.25;Cent/kWh
04.04.2019 13:00:00;04.04.2019 14:00:00;4.14;Cent/kWh
04.04.2019 14:00:00;04.04.2019 15:00:00;3.86;Cent/kWh
04.04.2019 15:00:00;04.04.2019 16:00:00;3.83;Cent/kWh
04.04.2019 16:00:00;04.04.2019 17:00:00;3.81;Cent/kWh
04.04.2019 17:00:00;04.04.2019 18:00:00;4.01;Cent/kWh
04.04.2019 18:00:00;04.04.2019 19:00:00;4.52;Cent/kWh
04.04.2019 19:00:00;04.04.2019 20:00:00;5.05;Cent/kWh
04.04.2019 20:00:00;04.04.2019 21:00:00;4.89;Cent/kWh
04.04.2019 21:00:00;04.04.2019 22:00:00;4.38;Cent/kWh
04.04.2019 22:00:00;04.04.2019 23:00:00;3.93;Cent/kWh
04.04.2019 23:00:00;05.04.2019 00:00:00;3.69;Cent/kWh
05.04.2019 00:00:00;05.04.2019 01:00:00;3.65;Cent/kWh
05.04.2019 01:00:00;05.04.2019 02:00:00;3.57;Cent/kWh
05.04.2019 02:00:00;05.04.2019 03:00:00;3.49;Cent/kWh
05.04.2019 03:00:00;05.04.2019 04:00:00;3.45;Cent/kWh
05.04.2019 04:00:00;05.04.2019 05:00:00;3.62;Cent/kWh
05.04.2019 05:00:00;05.04.2019 06:00:00;3.87;Cent/kWh
05.04.2019 06:00:00;05.04.2019 07:00:00;4.48;Cent/kWh
05.04.2019 07:00:00;05.04.2019 08:00:00;5.32;Cent/kWh
05.04.2019 08:00:00;05.04.2019 09:00:00;5.87;Cent/kWh
05.04.2019 09:00:00;05.04.2019 10:00:00;5.49;Cent/kWh
05.04.2019 10:00:00;05.04.2019 11:00:00;4.80;Cent/kWh
05.04.2019 11:00:00;05.04.2019 12:00:00;4.45;Cent/kWh
05.04.2019 12:00:00;05.04.2019 13:00:00;4.18;Cent/kWh
05.04.2019 13:00:00;05.04.2019 14:00:00;4.03;Cent/kWh
05.04.2019 14:00:00;05.04.2019 15:00:00;3.87;Cent/kWh
05.04.2019 15:00:00;05.04.2019 16:00:00;3.83;Cent/kWh
05.04.2019 16:00:00;05.04.2019 17:00:00;3.86;Cent/kWh
05.04.2019 17:00:00;05.04.2019 18:00:00;4.10;Cent/kWh
05.04.2019 18:00:00;05.04.2019 19:00:00;4.44;Cent/kWh
05.04.2019 19:00:00;05.04.2019 20:00:00;4.72;Cent/kWh
05.04.2019 20:00:00;05.04.2019 21:00:00;4.69;Cent/kWh
05.04.2019 21:00:00;05.04.2019 22:00:00;4.20;Cent/kWh
05.04.2019 22:00:00;05.04.2019 23:00:00;4.13;Cent/kWh
05.04.2019 23:00:00;06.04.2019 00:00:00;4.03;Cent/kWh
06.04.2019 00:00:00;06.04.2019 01:00:00;4.17;Cent/kWh
06.04.2019 01:00:00;06.04.2019 02:00:00;3.99;Cent/kWh
06.04.2019 02:00:00;06.04.2019 03:00:00;3.83;Cent/kWh
06.04.2019 03:00:00;06.04.2019 04:00:00;3.61;Cent/kWh
06.04.2019 04:00:00;06.04.2019 05:00:00;3.61;Cent/kWh
06.04.2019 05:00:00;06.04.2019 06:00:00;3.73;Cent/kWh
06.04.2019 06:00:00;06.04.2019 07:00:00;3.92;Cent/kWh
06.04.2019 07:00:00;06.04.2019 08:00:00;4.20;Cent/kWh
06.04.2019 08:00:00;06.04.2019 09:00:00;4.41;Cent/kWh
06.04.2019 09:00:00;06.04.2019 10:00:00;4.65;Cent/kWh
06.04.2019 10:00:00;06.04.2019 11:00:00;4.27;Cent/kWh
06.04.2019 11:00:00;06.04.2019 12:00:00;4.09;Cent/kWh
06.04.2019 12:00:00;06.04.2019 13:00:00;3.57;Cent/kWh
06.04.2019 13:00:00;06.04.2019 14:00:00;3.37;Cent/kWh
06.04.2019 14:00:00;06.04.2019 15:00:00;3.11;Cent/kWh
06.04.2019 15:00:00;06.04.2019 16:00:00;3.10;Cent/kWh
06.04.2019 16:00:00;06.04.2019 17:00:00;3.10;Cent/kWh
06.04.2019 17:00:00;06.04.2019 18:00:00;3.24;Cent/kWh
06.04.2019 18:00:00;06.04.2019 19:00:00;4.13;Cent/kWh
06.04.2019 19:00:00;06.04.2019 20:00:00;4.29;Cent/kWh
06.04.2019 20:00:00;06.04.2019 21:00:00;4.20;Cent/kWh
06.04.2019 21:00:00;06.04.2019 22:00:00;4.01;Cent/kWh
06.04.2019 22:00:00;06.04.2019 23:00:00;3.95;Cent/kWh
06.04.2019 23:00:00;07.04.2019 00:00:00;3.66;Cent/kWh
07.04.2019 00:00:00;07.04.2019 01:00:00;3.64;Cent/kWh
07.04.2019 01:00:00;07.04.2019 02:00:00;3.77;Cent/kWh
07.04.2019 02:00:00;07.04.2019 03:00:00;3.71;Cent/kWh
07.04.2019 03:00:00;07.04.2019 04:00:00;3.55;Cent/kWh
07.04.2019 04:00:00;07.04.2019 05:00:00;3.56;Cent/kWh
07.04.2019 05:00:00;07.04.2019 06:00:00;3.62;Cent/kWh
07.04.2019 06:00:00;07.04.2019 07:00:00;3.67;Cent/kWh
07.04.2019 07:00:00;07.04.2019 08:00:00;3.94;Cent/kWh
07.04.2019 08:00:00;07.04.2019 09:00:00;4.05;Cent/kWh
07.04.2019 09:00:00;07.04.2019 10:00:00;4.07;Cent/kWh
07.04.2019 10:00:00;07.04.2019 11:00:00;3.66;Cent/kWh
07.04.2019 11:00:00;07.04.2019 12:00:00;3.50;Cent/kWh
07.04.2019 12:00:00;07.04.2019 13:00:00;3.47;Cent/kWh
07.04.2019 13:00:00;07.04.2019 14:00:00;3.15;Cent/kWh
07.04.2019 14:00:00;07.04.2019 15:00:00;2.80;Cent/kWh
07.04.2019 15:00:00;07.04.2019 16:00:00;2.89;Cent/kWh
07.04.2019 16:00:00;07.04.2019 17:00:00;3.14;Cent/kWh
07.04.2019 17:00:00;07.04.2019 18:00:00;3.49;Cent/kWh
07.04.2019 18:00:00;07.04.2019 19:00:00;4.29;Cent/kWh
07.04.2019 19:00:00;07.04.2019 20:00:00;4.67;Cent/kWh
07.04.2019 20:00:00;07.04.2019 21:00:00;4.97;Cent/kWh
07.04.2019 21:00:00;07.04.2019 22:00:00;4.63;Cent/kWh
07.04.2019 22:00:00;07.04.2019 23:00:00;4.56;Cent/kWh
07.04.2019 23:00:00;08.04.2019 00:00:00;4.40;Cent/kWh
08.04.2019 00:00:00;08.04.2019 01:00:00;3.88;Cent/kWh
08.04.2019 01:00:00;08.04.2019 02:00:00;3.77;Cent/kWh
08.04.2019 02:00:00;08.04.2019 03:00:00;3.67;Cent/kWh
08.04.2019 03:00:00;08.04.2019 04:00:00;3.63;Cent/kWh
08.04.2019 04:00:00;08.04.2019 05:00:00;3.72;Cent/kWh
08.04.2019 05:00:00;08.04.2019 06:00:00;4.16;Cent/kWh
08.04.2019 06:00:00;08.04.2019 07:00:00;5.50;Cent/kWh
08.04.2019 07:00:00;08.04.2019 08:00:00;5.95;Cent/kWh
08.04.2019 08:00:00;08.04.2019 09:00:00;6.00;Cent/kWh
08.04.2019 09:00:00;08.04.2019 10:00:00;5.86;Cent/kWh
08.04.2019 10:00:00;08.04.2019 11:00:00;4.98;Cent/kWh
08.04.2019 11:00:00;08.04.2019 12:00:00;4.52;Cent/kWh
08.04.2019 12:00:00;08.04.2019 13:00:00;4.39;Cent/kWh
08.04.2019 13:00:00;08.04.2019 14:00:00;4.24;Cent/kWh
08.04.2019 14:00:00;08.04.2019 15:00:00;4.10;Cent/kWh
08.04.2019 15:00:00;08.04.2019 16:00:00;4.02;Cent/kWh
08.04.2019 16:00:00;08.04.2019 17:00:00;3.97;Cent/kWh
08.04.2019 17:00:00;08.04.2019 18:00:00;4.28;Cent/kWh
08.04.2019 18:00:00;08.04.2019 19:00:00;4.51;Cent/kWh
08.04.2019 19:00:00;08.04.2019 20:00:00;4.85;Cent/kWh
08.04.2019 20:00:00;08.04.2019 21:00:00;4.66;Cent/kWh
08.04.2019 21:00:00;08.04.2019 22:00:00;4.35;Cent/kWh
08.04.2019 22:00:00;08.04.2019 23:00:00;4.23;Cent/kWh
08.04.2019 23:00:00;09.04.2019 00:00:00;3.92;Cent/kWh
09.04.2019 00:00:00;09.04.2019 01:00:00;3.60;Cent/kWh
09.04.2019 01:00:00;09.04.2019 02:00:00;3.59;Cent/kWh
09.04.2019 02:00:00;09.04.2019 03:00:00;3.56;Cent/kWh
09.04.2019 03:00:00;09.04.2019 04:00:00;3.50;Cent/kWh
09.04.2019 04:00:00;09.04.2019 05:00:00;3.51;Cent/kWh
09.04.2019 05:00:00;09.04.2019 06:00:00;3.75;Cent/kWh
09.04.2019 06:00:00;09.04.2019 07:00:00;4.72;Cent/kWh
09.04.2019 07:00:00;09.04.2019 08:00:00;5.21;Cent/kWh
09.04.2019 08:00:00;09.04.2019 09:00:00;5.53;Cent/kWh
09.04.2019 09:00:00;09.04.2019 10:00:00;4.95;Cent/kWh
09.04.2019 10:00:00;09.04.2019 11:00:00;4.68;Cent/kWh
09.04.2019 11:00:00;09.04.2019 12:00:00;4.51;Cent/kWh
09.04.2019 12:00:00;09.04.2019 13:00:00;4.31;Cent/kWh
09.04.2019 13:00:00;09.04.2019 14:00:00;4.15;Cent/kWh
09.04.2019 14:00:00;09.04.2019 15:00:00;3.96;Cent/kWh
09.04.2019 15:00:00;09.04.2019 16:00:00;3.74;Cent/kWh
09.04.2019 16:00:00;09.04.2019 17:00:00;3.74;Cent/kWh
09.04.2019 17:00:00;09.04.2019 18:00:00;4.07;Cent/kWh
09.04.2019 18:00:00;09.04.2019 19:00:00;4.41;Cent/kWh
09.04.2019 19:00:00;09.04.2019 20:00:00;4.70;Cent/kWh
09.04.2019 20:00:00;09.04.2019 21:00:00;4.59;Cent/kWh
09.04.2019 21:00:00;09.04.2019 22:00:00;4.28;Cent/kWh
09.04.2019 22:00:00;09.04.2019 23:00:00;4.20;Cent/kWh
09.04.2019 23:00:00;10.04.2019 00:00:00;3.91;Cent/kWh
10.04.2019 00:00:00;10.04.2019 01:00:00;3.81;Cent/kWh
10.04.2019 01:00:00;10.04.2019 02:00:00;3.72;Cent/kWh
10.04.2019 02:00:00;10.04.2019 03:00:00;3.65;Cent/kWh
10.04.2019 03:00:00;10.04.2019 04:00:00;3.58;Cent/kWh
10.04.2019 04:00:00;10.04.2019 05:00:00;3.66;Cent/kWh
10.04.2019 05:00:00;10.04.2019 06:00:00;3.86;Cent/kWh
10.04.2019 06:00:00;10.04.2019 07:00:00;4.70;Cent/kWh
10.04.2019 07:00:00;10.04.2019 08:00:00;5.44;Cent/kWh
10.04.2019 08:00:00;10.04.2019 09:00:00;5.80;Cent/kWh
10.04.2019 09:00:00;10.04.2019 10:00:00;5.14;Cent/kWh
10.04.2019 10:00:00;10.04.2019 11:00:00;4.69;Cent/kWh
10.04.2019 11:00:00;10.04.2019 12:00:00;4.59;Cent/kWh
10.04.2019 12:00:00;10.04.2019 13:00:00;4.31;Cent/kWh
10.04.2019 13:00:00;10.04.2019 14:00:00;4.10;Cent/kWh
10.04.2019 14:00:00;10.04.2019 15:00:00;3.83;Cent/kWh
10.04.2019 15:00:00;10.04.2019 16:00:00;3.76;Cent/kWh
10.04.2019 16:00:00;10.04.2019 17:00:00;3.81;Cent/kWh
10.04.2019 17:00:00;10.04.2019 18:00:00;4.26;Cent/kWh
10.04.2019 18:00:00;10.04.2019 19:00:00;4.65;Cent/kWh
10.04.2019 19:00:00;10.04.2019 20:00:00;4.72;Cent/kWh
10.04.2019 20:00:00;10.04.2019 21:00:00;4.70;Cent/kWh
10.04.2019 21:00:00;10.04.2019 22:00:00;4.46;Cent/kWh
10.04.2019 22:00:00;10.04.2019 23:00:00;4.26;Cent/kWh
10.04.2019 23:00:00;11.04.2019 00:00:00;3.92;Cent/kWh
11.04.2019 00:00:00;11.04.2019 01:00:00;3.75;Cent/kWh
11.04.2019 01:00:00;11.04.2019 02:00:00;3.71;Cent/kWh
11.04.2019 02:00:00;11.04.2019 03:00:00;3.71;Cent/kWh
11.04.2019 03:00:00;11.04.2019 04:00:00;3.65;Cent/kWh
11.04.2019 04:00:00;11.04.2019 05:00:00;3.71;Cent/kWh
11.04.2019 05:00:00;11.04.2019 06:00:00;3.89;Cent/kWh
11.04.2019 06:00:00;11.04.2019 07:00:00;4.79;Cent/kWh
11.04.2019 07:00:00;11.04.2019 08:00:00;5.64;Cent/kWh
11.04.2019 08:00:00;11.04.2019 09:00:00;5.92;Cent/kWh
11.04.2019 09:00:00;11.04.2019 10:00:00;5.17;Cent/kWh
11.04.2019 10:00:00;11.04.2019 11:00:00;4.86;Cent/kWh
11.04.2019 11:00:00;11.04.2019 12:00:00;4.60;Cent/kWh
11.04.2019 12:00:00;11.04.2019 13:00:00;4.40;Cent/kWh
11.04.2019 13:00:00;11.04.2019 14:00:00;3.99;Cent/kWh
11.04.2019 14:00:00;11.04.2019 15:00:00;3.89;Cent/kWh
11.04.2019 15:00:00;11.04.2019 16:00:00;3.93;Cent/kWh
11.04.2019 16:00:00;11.04.2019 17:00:00;3.90;Cent/kWh
11.04.2019 17:00:00;11.04.2019 18:00:00;4.39;Cent/kWh
11.04.2019 18:00:00;11.04.2019 19:00:00;4.77;Cent/kWh
11.04.2019 19:00:00;11.04.2019 20:00:00;5.40;Cent/kWh
11.04.2019 20:00:00;11.04.2019 21:00:00;5.30;Cent/kWh
11.04.2019 21:00:00;11.04.2019 22:00:00;4.90;Cent/kWh
11.04.2019 22:00:00;11.04.2019 23:00:00;4.72;Cent/kWh
11.04.2019 23:00:00;12.04.2019 00:00:00;4.41;Cent/kWh
12.04.2019 00:00:00;12.04.2019 01:00:00;3.96;Cent/kWh
12.04.2019 01:00:00;12.04.2019 02:00:00;3.90;Cent/kWh
12.04.2019 02:00:00;12.04.2019 03:00:00;3.80;Cent/kWh
12.04.2019 03:00:00;12.04.2019 04:00:00;3.72;Cent/kWh
12.04.2019 04:00:00;12.04.2019 05:00:00;3.75;Cent/kWh
12.04.2019 05:00:00;12.04.2019 06:00:00;4.11;Cent/kWh
12.04.2019 06:00:00;12.04.2019 07:00:00;4.96;Cent/kWh
12.04.2019 07:00:00;12.04.2019 08:00:00;5.90;Cent/kWh
12.04.2019 08:00:00;12.04.2019 09:00:00;6.01;Cent/kWh
12.04.2019 09:00:00;12.04.2019 10:00:00;5.16;Cent/kWh
12.04.2019 10:00:00;12.04.2019 11:00:00;4.90;Cent/kWh
12.04.2019 11:00:00;12.04.2019 12:00:00;4.70;Cent/kWh
12.04.2019 12:00:00;12.04.2019 13:00:00;4.51;Cent/kWh
12.04.2019 13:00:00;12.04.2019 14:00:00;4.41;Cent/kWh
12.04.2019 14:00:00;12.04.2019 15:00:00;4.21;Cent/kWh
12.04.2019 15:00:00;12.04.2019 16:00:00;4.07;Cent/kWh
12.04.2019 16:00:00;12.04.2019 17:00:00;3.86;Cent/kWh
12.04.2019 17:00:00;12.04.2019 18:00:00;4.17;Cent/kWh
12.04.2019 18:00:00;12.04.2019 19:00:00;4.64;Cent/kWh
12.04.2019 19:00:00;12.04.2019 20:00:00;4.84;Cent/kWh
12.04.2019 20:00:00;12.04.2019 21:00:00;4.81;Cent/kWh
12.04.2019 21:00:00;12.04.2019 22:00:00;4.54;Cent/kWh
12.04.2019 22:00:00;12.04.2019 23:00:00;4.53;Cent/kWh
12.04.2019 23:00:00;13.04.2019 00:00:00;4.33;Cent/kWh
13.04.2019 00:00:00;13.04.2019 01:00:00;4.48;Cent/kWh
13.04.2019 01:00:00;13.04.2019 02:00:00;4.35;Cent/kWh
13.04.2019 02:00:00;13.04.2019 03:00:00;4.24;Cent/kWh
13.04.2019 03:00:00;13.04.2019 04:00:00;4.01;Cent/kWh
13.04.2019 04:00:00;13.04.2019 05:00:00;3.95;Cent/kWh
13.04.2019 05:00:00;13.04.2019 06:00:00;4.09;Cent/kWh
13.04.2019 06:00:00;13.04.2019 07:00:00;4.38;Cent/kWh
13.04.2019 07:00:00;13.04.2019 08:00:00;4.51;Cent/kWh
13.04.2019 08:00:00;13.04.2019 09:00:00;4.73;Cent/kWh
13.04.2019 09:00:00;13.04.2019 10:00:00;4.70;Cent/kWh
13.04.2019 10:00:00;13.04.2019 11:00:00;4.25;Cent/kWh
13.04.2019 11:00:00;13.04.2019 12:00:00;4.04;Cent/kWh
13.04.2019 12:00:00;13.04.2019 13:00:00;4.04;Cent/kWh
13.04.2019 13:00:00;13.04.2019 14:00:00;3.91;Cent/kWh
13.04.2019 14:00:00;13.04.2019 15:00:00;3.71;Cent/kWh
13.04.2019 15:00:00;13.04.2019 16:00:00;3.64;Cent/kWh
13.04.2019 16:00:00;13.04.2019 17:00:00;3.57;Cent/kWh
13.04.2019 17:00:00;13.04.2019 18:00:00;3.78;Cent/kWh
13.04.2019 18:00:00;13.04.2019 19:00:00;4.30;Cent/kWh
13.04.2019 19:00:00;13.04.2019 20:00:00;4.61;Cent/kWh
13.04.2019 20:00:00;13.04.2019 21:00:00;4.63;Cent/kWh
13.04.2019 21:00:00;13.04.2019 22:00:00;4.34;Cent/kWh
13.04.2019 22:00:00;13.04.2019 23:00:00;4.16;Cent/kWh
13.04.2019 23:00:00;14.04.2019 00:00:00;3.80;Cent/kWh
14.04.2019 00:00:00;14.04.2019 01:00:00;4.10;Cent/kWh
14.04.2019 01:00:00;14.04.2019 02:00:00;3.79;Cent/kWh
14.04.2019 02:00:00;14.04.2019 03:00:00;3.74;Cent/kWh
14.04.2019 03:00:00;14.04.2019 04:00:00;3.80;Cent/kWh
14.04.2019 04:00:00;14.04.2019 05:00:00;3.72;Cent/kWh
14.04.2019 05:00:00;14.04.2019 06:00:00;3.71;Cent/kWh
14.04.2019 06:00:00;14.04.2019 07:00:00;3.74;Cent/kWh
14.04.2019 07:00:00;14.04.2019 08:00:00;3.82;Cent/kWh
14.04.2019 08:00:00;14.04.2019 09:00:00;4.04;Cent/kWh
14.04.2019 09:00:00;14.04.2019 10:00:00;3.98;Cent/kWh
14.04.2019 10:00:00;14.04.2019 11:00:00;3.71;Cent/kWh
14.04.2019 11:00:00;14.04.2019 12:00:00;3.65;Cent/kWh
14.04.2019 12:00:00;14.04.2019 13:00:00;3.56;Cent/kWh
14.04.2019 13:00:00;14.04.2019 14:00:00;3.40;Cent/kWh
14.04.2019 14:00:00;14.04.2019 15:00:00;2.99;Cent/kWh
14.04.2019 15:00:00;14.04.2019 16:00:00;2.92;Cent/kWh
14.04.2019 16:00:00;14.04.2019 17:00:00;3.14;Cent/kWh
14.04.2019 17:00:00;14.04.2019 18:00:00;3.51;Cent/kWh
14.04.2019 18:00:00;14.04.2019 19:00:00;4.19;Cent/kWh
14.04.2019 19:00:00;14.04.2019 20:00:00;4.47;Cent/kWh
14.04.2019 20:00:00;14.04.2019 21:00:00;4.67;Cent/kWh
14.04.2019 21:00:00;14.04.2019 22:00:00;4.54;Cent/kWh
14.04.2019 22:00:00;14.04.2019 23:00:00;4.22;Cent/kWh
14.04.2019 23:00:00;15.04.2019 00:00:00;4.10;Cent/kWh
15.04.2019 00:00:00;15.04.2019 01:00:00;3.91;Cent/kWh
15.04.2019 01:00:00;15.04.2019 02:00:00;3.82;Cent/kWh
15.04.2019 02:00:00;15.04.2019 03:00:00;3.79;Cent/kWh
15.04.2019 03:00:00;15.04.2019 04:00:00;3.89;Cent/kWh
15.04.2019 04:00:00;15.04.2019 05:00:00;3.80;Cent/kWh
15.04.2019 05:00:00;15.04.2019 06:00:00;4.26;Cent/kWh
15.04.2019 06:00:00;15.04.2019 07:00:00;5.03;Cent/kWh
15.04.2019 07:00:00;15.04.2019 08:00:00;5.89;Cent/kWh
15.04.2019 08:00:00;15.04.2019 09:00:00;6.03;Cent/kWh
15.04.2019 09:00:00;15.04.2019 10:00:00;5.02;Cent/kWh
15.04.2019 10:00:00;15.04.2019 11:00:00;4.79;Cent/kWh
15.04.2019 11:00:00;15.04.2019 12:00:00;4.79;Cent/kWh
15.04.2019 12:00:00;15.04.2019 13:00:00;4.80;Cent/kWh
15.04.2019 13:00:00;15.04.2019 14:00:00;4.80;Cent/kWh
15.04.2019 14:00:00;15.04.2019 15:00:00;4.60;Cent/kWh
15.04.2019 15:00:00;15.04.2019 16:00:00;4.28;Cent/kWh
15.04.2019 16:00:00;15.04.2019 17:00:00;3.62;Cent/kWh
15.04.2019 17:00:00;15.04.2019 18:00:00;4.10;Cent/kWh
15.04.2019 18:00:00;15.04.2019 19:00:00;4.70;Cent/kWh
15.04.2019 19:00:00;15.04.2019 20:00:00;4.93;Cent/kWh
15.04.2019 20:00:00;15.04.2019 21:00:00;4.86;Cent/kWh
15.04.2019 21:00:00;15.04.2019 22:00:00;4.57;Cent/kWh
15.04.2019 22:00:00;15.04.2019 23:00:00;4.24;Cent/kWh
15.04.2019 23:00:00;16.04.2019 00:00:00;3.70;Cent/kWh
16.04.2019 00:00:00;16.04.2019 01:00:00;3.74;Cent/kWh
16.04.2019 01:00:00;16.04.2019 02:00:00;3.59;Cent/kWh
16.04.2019 02:00:00;16.04.2019 03:00:00;3.67;Cent/kWh
16.04.2019 03:00:00;16.04.2019 04:00:00;3.60;Cent/kWh
16.04.2019 04:00:00;16.04.2019 05:00:00;3.51;Cent/kWh
16.04.2019 05:00:00;16.04.2019 06:00:00;3.74;Cent/kWh
16.04.2019 06:00:00;16.04.2019 07:00:00;4.62;Cent/kWh
16.04.2019 07:00:00;16.04.2019 08:00:00;5.21;Cent/kWh
16.04.2019 08:00:00;16.04.2019 09:00:00;5.22;Cent/kWh
16.04.2019 09:00:00;16.04.2019 10:00:00;4.89;Cent/kWh
16.04.2019 10:00:00;16.04.2019 11:00:00;4.40;Cent/kWh
16.04.2019 11:00:00;16.04.2019 12:00:00;4.89;Cent/kWh
16.04.2019 12:00:00;16.04.2019 13:00:00;4.81;Cent/kWh
16.04.2019 13:00:00;16.04.2019 14:00:00;4.81;Cent/kWh
16.04.2019 14:00:00;16.04.2019 15:00:00;4.70;Cent/kWh
16.04.2019 15:00:00;16.04.2019 16:00:00;4.54;Cent/kWh
16.04.2019 16:00:00;16.04.2019 17:00:00;4.01;Cent/kWh
16.04.2019 17:00:00;16.04.2019 18:00:00;4.45;Cent/kWh
16.04.2019 18:00:00;16.04.2019 19:00:00;4.97;Cent/kWh
16.04.2019 19:00:00;16.04.2019 20:00:00;5.30;Cent/kWh
16.04.2019 20:00:00;16.04.2019 21:00:00;5.03;Cent/kWh
16.04.2019 21:00:00;16.04.2019 22:00:00;4.79;Cent/kWh
16.04.2019 22:00:00;16.04.2019 23:00:00;4.52;Cent/kWh
16.04.2019 23:00:00;17.04.2019 00:00:00;4.20;Cent/kWh
17.04.2019 00:00:00;17.04.2019 01:00:00;3.66;Cent/kWh
17.04.2019 01:00:00;17.04.2019 02:00:00;3.59;Cent/kWh
17.04.2019 02:00:00;17.04.2019 03:00:00;3.50;Cent/kWh
17.04.2019 03:00:00;17.04.2019 04:00:00;3.50;Cent/kWh
17.04.2019 04:00:00;17.04.2019 05:00:00;3.54;Cent/kWh
17.04.2019 05:00:00;17.04.2019 06:00:00;3.79;Cent/kWh
17.04.2019 06:00:00;17.04.2019 07:00:00;4.68;Cent/kWh
17.04.2019 07:00:00;17.04.2019 08:00:00;5.04;Cent/kWh
17.04.2019 08:00:00;17.04.2019 09:00:00;5.22;Cent/kWh
17.04.2019 09:00:00;17.04.2019 10:00:00;5.04;Cent/kWh
17.04.2019 10:00:00;17.04.2019 11:00:00;4.80;Cent/kWh
17.04.2019 11:00:00;17.04.2019 12:00:00;4.09;Cent/kWh
17.04.2019 12:00:00;17.04.2019 13:00:00;3.75;Cent/kWh
17.04.2019 13:00:00;17.04.2019 14:00:00;3.56;Cent/kWh
17.04.2019 14:00:00;17.04.2019 15:00:00;3.61;Cent/kWh
17.04.2019 15:00:00;17.04.2019 16:00:00;3.51;Cent/kWh
17.04.2019 16:00:00;17.04.2019 17:00:00;3.55;Cent/kWh
17.04.2019 17:00:00;17.04.2019 18:00:00;3.87;Cent/kWh
17.04.2019 18:00:00;17.04.2019 19:00:00;4.61;Cent/kWh
17.04.2019 19:00:00;17.04.2019 20:00:00;4.95;Cent/kWh
17.04.2019 20:00:00;17.04.2019 21:00:00;4.81;Cent/kWh
17.04.2019 21:00:00;17.04.2019 22:00:00;4.48;Cent/kWh
17.04.2019 22:00:00;17.04.2019 23:00:00;4.10;Cent/kWh
17.04.2019 23:00:00;18.04.2019 00:00:00;3.73;Cent/kWh
18.04.2019 00:00:00;18.04.2019 01:00:00;3.79;Cent/kWh
18.04.2019 01:00:00;18.04.2019 02:00:00;3.73;Cent/kWh
18.04.2019 02:00:00;18.04.2019 03:00:00;3.72;Cent/kWh
18.04.2019 03:00:00;18.04.2019 04:00:00;3.50;Cent/kWh
18.04.2019 04:00:00;18.04.2019 05:00:00;3.51;Cent/kWh
18.04.2019 05:00:00;18.04.2019 06:00:00;3.81;Cent/kWh
18.04.2019 06:00:00;18.04.2019 07:00:00;4.78;Cent/kWh
18.04.2019 07:00:00;18.04.2019 08:00:00;5.20;Cent/kWh
18.04.2019 08:00:00;18.04.2019 09:00:00;5.56;Cent/kWh
18.04.2019 09:00:00;18.04.2019 10:00:00;4.99;Cent/kWh
18.04.2019 10:00:00;18.04.2019 11:00:00;4.46;Cent/kWh
18.04.2019 11:00:00;18.04.2019 12:00:00;4.04;Cent/kWh
18.04.2019 12:00:00;18.04.2019 13:00:00;3.80;Cent/kWh
18.04.2019 13:00:00;18.04.2019 14:00:00;3.80;Cent/kWh
18.04.2019 14:00:00;18.04.2019 15:00:00;3.80;Cent/kWh
18.04.2019 15:00:00;18.04.2019 16:00:00;3.79;Cent/kWh
18.04.2019 16:00:00;18.04.2019 17:00:00;3.42;Cent/kWh
18.04.2019 17:00:00;18.04.2019 18:00:00;3.94;Cent/kWh
18.04.2019 18:00:00;18.04.2019 19:00:00;4.51;Cent/kWh
18.04.2019 19:00:00;18.04.2019 20:00:00;4.93;Cent/kWh
18.04.2019 20:00:00;18.04.2019 21:00:00;4.82;Cent/kWh
18.04.2019 21:00:00;18.04.2019 22:00:00;4.45;Cent/kWh
18.04.2019 22:00:00;18.04.2019 23:00:00;4.32;Cent/kWh
18.04.2019 23:00:00;19.04.2019 00:00:00;4.11;Cent/kWh
19.04.2019 00:00:00;19.04.2019 01:00:00;3.59;Cent/kWh
19.04.2019 01:00:00;19.04.2019 02:00:00;3.30;Cent/kWh
19.04.2019 02:00:00;19.04.2019 03:00:00;3.21;Cent/kWh
19.04.2019 03:00:00;19.04.2019 04:00:00;3.11;Cent/kWh
19.04.2019 04:00:00;19.04.2019 05:00:00;3.21;Cent/kWh
19.04.2019 05:00:00;19.04.2019 06:00:00;3.41;Cent/kWh
19.04.2019 06:00:00;19.04.2019 07:00:00;3.81;Cent/kWh
19.04.2019 07:00:00;19.04.2019 08:00:00;4.07;Cent/kWh
19.04.2019 08:00:00;19.04.2019 09:00:00;4.44;Cent/kWh
19.04.2019 09:00:00;19.04.2019 10:00:00;4.31;Cent/kWh
19.04.2019 10:00:00;19.04.2019 11:00:00;3.83;Cent/kWh